Weather reports worldwide

Advertisment
Weybourne, United Kingdom (3488): temperature & dewpoint: 12.01.2018 13:00:00 - 18.01.2018 13:00:00 (GMT)Weybourne, United Kingdom (3488): wind speed & gusts: 12.01.2018 13:00:00 - 18.01.2018 13:00:00 (GMT)Weybourne, United Kingdom (3488): wind direction: 12.01.2018 13:00:00 - 18.01.2018 13:00:00 (GMT)Weybourne, United Kingdom (3488): reduced air pressure: 12.01.2018 13:00:00 - 18.01.2018 13:00:00 (GMT)Weybourne, United Kingdom (3488): visibility: 12.01.2018 13:00:00 - 18.01.2018 13:00:00 (GMT)Weybourne, United Kingdom (3488): precipitation: 12.01.2018 13:00:00 - 18.01.2018 13:00:00 (GMT)
Date & Time tt [°C] td [°C] ff [km/h] ff [kn] fx [km/h] fx [kn] dd ppp [hPa] vv [km] rr [mm]
18.01.2018 13:00:00 5,6 2,5 34 18 - - W 999,1 50 0,0
18.01.2018 12:00:00 5,0 1,6 35 19 50 27 W 999,0 45 0,0
18.01.2018 11:00:00 4,5 1,8 34 18 54 29 W 998,8 50 0,0
18.01.2018 10:00:00 3,2 1,8 39 21 57 31 W 997,4 30 0,0
18.01.2018 09:00:00 3,2 2,1 46 25 74 40 W 995,4 50 0,0
18.01.2018 08:00:00 3,5 2,9 59 32 96 52 WNW 992,6 8 0,4
18.01.2018 07:00:00 3,7 2,6 81 44 113 61 WNW 987,3 7 0,0
18.01.2018 06:00:00 7,0 2,9 80 43 107 58 W 981,1 40 0,0
18.01.2018 05:00:00 8,9 4,8 52 28 76 41 WSW 981,2 29 0,0
18.01.2018 04:00:00 8,7 7,1 46 25 68 37 WSW 982,4 40 1,2
18.01.2018 03:00:00 6,8 6,6 37 20 57 31 SSW 984,5 35 0,0
18.01.2018 02:00:00 3,9 3,6 35 19 54 29 S 987,6 3,9 1,0
18.01.2018 01:00:00 2,5 2,0 31 17 - - SSE 991,7 3,8 2,2
18.01.2018 00:00:00 3,3 2,1 26 14 - - S 996,5 4,1 1,2
17.01.2018 23:00:00 4,2 0,8 24 13 - - SSW 999,5 50 0,0
17.01.2018 22:00:00 4,1 0,5 31 17 48 26 SW 1000,9 45 0,0
17.01.2018 21:00:00 4,3 0,2 31 17 61 33 SW 1002,2 30 0,0
17.01.2018 20:00:00 4,3 0,2 42 23 59 32 WSW 1002,7 30 0,0
17.01.2018 19:00:00 4,3 0,1 31 17 52 28 WSW 1003,4 16 0,0
17.01.2018 18:00:00 4,1 0,1 37 20 50 27 WSW 1003,8 35 0,0
17.01.2018 17:00:00 4,3 0,2 31 17 59 32 WSW 1003,9 50 0,0
17.01.2018 16:00:00 5,5 0,7 41 22 59 32 WSW 1003,8 26 0,0
17.01.2018 15:00:00 5,0 0,6 37 20 61 33 WSW 1003,2 29 0,0
17.01.2018 14:00:00 6,0 0,6 39 21 59 32 W 1003,1 40 0,0
17.01.2018 13:00:00 5,9 1,0 41 22 59 32 W 1002,5 35 0,0
17.01.2018 12:00:00 5,5 1,1 46 25 65 35 W 1001,6 29 0,0
17.01.2018 11:00:00 5,0 0,6 44 24 61 33 W 1000,9 28 0,0
17.01.2018 10:00:00 3,5 0,9 42 23 68 37 W 1000,0 45 0,0
17.01.2018 09:00:00 2,7 0,5 44 24 72 39 W 998,7 50 0,0
17.01.2018 08:00:00 2,9 0,5 52 28 72 39 W 997,0 50 0,0
17.01.2018 07:00:00 2,8 0,2 46 25 65 35 WSW 995,7 50 0,0
17.01.2018 06:00:00 2,5 -0,3 39 21 59 32 WSW 994,7 50 0,0
17.01.2018 05:00:00 1,6 -0,2 42 23 59 32 WSW 993,8 50 0,0
17.01.2018 04:00:00 1,4 -1,4 34 18 54 29 WSW 993,0 50 0,0
17.01.2018 03:00:00 1,4 -1,4 37 20 52 28 WSW 992,4 50 0,0
17.01.2018 02:00:00 1,7 -1,0 31 17 46 25 WSW 991,9 50 0,0
17.01.2018 01:00:00 2,0 -0,8 34 18 50 27 WSW 991,1 50 0,0
17.01.2018 00:00:00 1,5 -0,8 34 18 54 29 WSW 990,7 40 0,0
16.01.2018 23:00:00 2,0 -0,7 35 19 59 32 WSW 990,3 50 0,0
16.01.2018 22:00:00 2,3 -0,4 35 19 59 32 WSW 989,6 50 0,0
16.01.2018 21:00:00 2,3 -0,1 29 16 46 25 WSW 989,8 50 0,0
16.01.2018 20:00:00 2,7 -0,2 34 18 48 26 WSW 989,8 40 0,0
16.01.2018 19:00:00 2,6 -0,4 28 15 52 28 SW 989,8 45 0,0
16.01.2018 18:00:00 3,3 -0,5 31 17 50 27 SW 989,8 50 0,0
16.01.2018 17:00:00 3,6 -0,5 31 17 61 33 WSW 990,2 50 0,0
16.01.2018 16:00:00 4,5 -0,4 37 20 63 34 WSW 990,7 50 -
16.01.2018 15:00:00 5,3 0,0 39 21 63 34 WSW 991,0 50 0,0
16.01.2018 14:00:00 5,3 0,1 46 25 68 37 W 991,0 50 0,0
16.01.2018 13:00:00 5,7 0,8 44 24 65 35 W 991,1 50 0,0
16.01.2018 12:00:00 5,4 0,8 46 25 67 36 WSW 991,1 50 0,0
16.01.2018 11:00:00 4,8 0,9 37 20 57 31 WSW 991,6 35 0,0
16.01.2018 10:00:00 3,8 0,7 29 16 50 27 WSW 991,4 50 0,0
16.01.2018 09:00:00 2,9 0,6 34 18 48 26 WSW 990,6 35 0,0
16.01.2018 08:00:00 2,6 0,7 28 15 46 25 WSW 990,2 50 0,0
16.01.2018 07:00:00 2,6 0,8 34 18 46 25 WSW 989,4 50 0,0
16.01.2018 06:00:00 2,0 0,8 34 18 55 30 WSW 989,0 50 0,4
16.01.2018 05:00:00 1,1 0,4 41 22 74 40 W 988,6 45 1,2
16.01.2018 04:00:00 4,8 2,2 35 19 54 29 WSW 988,1 50 0,0
16.01.2018 03:00:00 4,9 2,4 41 22 57 31 WSW 988,2 50 0,0
16.01.2018 02:00:00 5,3 2,6 41 22 59 32 WSW 988,6 35 0,0
16.01.2018 01:00:00 4,9 2,6 37 20 52 28 SW 988,6 50 0,0
16.01.2018 00:00:00 5,0 2,7 37 20 61 33 SW 989,4 45 0,0
15.01.2018 23:00:00 5,5 2,9 34 18 52 28 WSW 989,6 50 0,0
15.01.2018 22:00:00 5,0 2,4 31 17 - - SW 989,7 50 0,0
15.01.2018 21:00:00 5,5 3,1 28 15 46 25 WSW 989,8 50 0,0
15.01.2018 20:00:00 5,4 3,0 34 18 55 30 WSW 989,6 35 0,0
15.01.2018 19:00:00 6,0 3,3 41 22 65 35 W 989,5 50 0,0
15.01.2018 18:00:00 6,6 4,5 34 18 54 29 W 989,2 50 0,0
15.01.2018 17:00:00 7,3 5,6 39 21 54 29 W 988,2 50 0,0
15.01.2018 16:00:00 7,5 6,6 29 16 55 30 W 987,7 50 0,4
15.01.2018 15:00:00 9,6 9,1 28 15 - - WSW 987,0 9 1,0
15.01.2018 14:00:00 9,2 8,5 18 10 - - SW 987,9 7 0,6
15.01.2018 13:00:00 9,6 8,6 26 14 - - SSW 989,1 45 0,0
15.01.2018 12:00:00 9,0 8,4 31 17 55 30 SSW 990,8 50 0,0
15.01.2018 11:00:00 8,4 8,0 37 20 50 27 SSW 992,4 29 0,0
15.01.2018 10:00:00 7,7 7,3 34 18 52 28 SSW 994,1 4,4 0,6
15.01.2018 09:00:00 7,0 6,7 31 17 48 26 S 995,2 8 1,0
15.01.2018 08:00:00 6,4 6,0 35 19 63 34 S 996,8 3,8 0,6
15.01.2018 07:00:00 5,8 5,4 42 23 63 34 S 998,1 5 2,0
15.01.2018 06:00:00 5,1 4,6 39 21 59 32 S 1000,1 3,3 0,8
15.01.2018 05:00:00 4,8 3,9 34 18 50 27 S 1002,2 2,9 0,8
15.01.2018 04:00:00 4,5 2,8 31 17 46 25 S 1004,0 8 0,2
15.01.2018 03:00:00 4,5 1,7 29 16 48 26 S 1006,1 9 0,0
15.01.2018 02:00:00 4,1 1,3 29 16 46 25 S 1007,9 11 -
15.01.2018 01:00:00 3,7 0,9 29 16 - - SSW 1009,3 11 0,0
15.01.2018 00:00:00 3,7 0,8 28 15 48 26 SSW 1010,7 11 0,0
14.01.2018 23:00:00 3,9 1,5 26 14 - - SSW 1011,9 9 0,0
14.01.2018 22:00:00 4,1 2,2 16 9 - - SSW 1013,2 7 0,0
14.01.2018 21:00:00 4,4 2,6 15 8 - - S 1014,2 8 0,0
14.01.2018 20:00:00 4,5 2,8 13 7 - - S 1015,2 7 0,0
14.01.2018 19:00:00 4,5 2,9 11 6 - - SSE 1015,7 6 0,0
14.01.2018 18:00:00 4,5 2,6 11 6 - - SSE 1016,1 8 0,0
14.01.2018 17:00:00 4,5 2,6 11 6 - - SE 1016,4 7 0,0
14.01.2018 16:00:00 4,6 2,5 9 5 - - SE 1016,7 8 0,0
14.01.2018 15:00:00 4,8 2,3 5 3 - - SE 1017,7 8 0,0
14.01.2018 14:00:00 5,1 1,8 5 3 - - SE 1017,8 13 0,0
14.01.2018 13:00:00 5,1 1,9 8 4 - - SE 1018,6 15 0,0
14.01.2018 12:00:00 5,1 1,7 8 4 - - SE 1019,6 17 0,0
14.01.2018 11:00:00 5,2 2,5 9 5 - - ESE 1020,0 11 0,0
14.01.2018 10:00:00 5,1 2,1 11 6 - - ESE 1020,3 13 0,0
14.01.2018 09:00:00 4,9 2,4 13 7 - - ESE 1020,1 11 0,0
14.01.2018 08:00:00 5,1 1,2 13 7 - - ESE 1019,9 27 0,0
14.01.2018 07:00:00 4,8 1,1 16 9 - - ESE 1019,9 23 0,0
14.01.2018 06:00:00 4,9 1,5 13 7 - - ESE 1020,2 22 0,0
14.01.2018 05:00:00 4,9 1,6 13 7 - - E 1020,4 14 0,0
14.01.2018 04:00:00 4,7 1,8 11 6 - - ESE 1020,6 13 0,0
14.01.2018 03:00:00 4,4 2,7 9 5 - - E 1020,7 7 0,0
14.01.2018 02:00:00 4,6 2,1 5 3 - - E 1020,8 7 0,0
14.01.2018 01:00:00 4,8 2,1 11 6 - - SSE 1020,8 12 0,0
14.01.2018 00:00:00 3,9 2,5 8 4 - - E 1020,8 8 0,0
13.01.2018 23:00:00 2,5 0,7 8 4 - - SE 1020,9 6 0,0
13.01.2018 22:00:00 4,8 2,6 9 5 - - ESE 1021,0 8 0,0
13.01.2018 21:00:00 4,9 2,5 13 7 - - ESE 1021,3 11 0,0
13.01.2018 20:00:00 4,8 2,5 13 7 - - SE 1021,6 11 0,0
13.01.2018 19:00:00 4,7 2,8 21 11 - - SE 1021,4 10 0,0
13.01.2018 18:00:00 4,6 3,4 21 11 - - SE 1021,2 7 0,0
13.01.2018 17:00:00 5,1 3,4 21 11 - - SE 1021,0 8 0,0
13.01.2018 16:00:00 5,3 3,8 16 9 - - ESE 1020,9 5 0,0
13.01.2018 15:00:00 6,0 3,6 16 9 - - SE 1021,0 8 0,0
13.01.2018 14:00:00 6,3 3,8 21 11 - - SE 1020,9 8 0,0
13.01.2018 13:00:00 6,7 4,2 18 10 - - SE 1021,4 7 0,0
13.01.2018 12:00:00 6,7 4,8 13 7 - - SE 1022,1 6 0,0
13.01.2018 11:00:00 5,9 4,7 11 6 - - SE 1022,5 4,6 0,0
13.01.2018 10:00:00 5,2 3,9 9 5 - - SE 1022,5 5 0,0
13.01.2018 09:00:00 5,0 3,5 13 7 - - SE 1022,2 5 0,0
13.01.2018 08:00:00 4,6 4,0 13 7 - - SE 1022,0 3,4 0,0
13.01.2018 07:00:00 3,9 3,5 9 5 - - SSE 1022,0 2,3 0,0
13.01.2018 06:00:00 5,0 4,7 15 8 - - SE 1022,0 1,9 0,0
13.01.2018 05:00:00 5,2 4,8 11 6 - - SE 1022,5 2,7 0,0
13.01.2018 04:00:00 5,3 5,0 13 7 - - SE 1023,0 2,7 0,0
13.01.2018 03:00:00 5,0 4,7 15 8 - - SE 1023,3 2,7 0,0
13.01.2018 02:00:00 5,7 5,5 11 6 - - SE 1023,6 2,5 0,0
13.01.2018 01:00:00 5,6 5,4 15 8 - - SE 1023,7 2,1 0,0
13.01.2018 00:00:00 5,3 5,0 13 7 - - SE 1024,2 2,3 0,0
12.01.2018 23:00:00 5,1 4,9 15 8 - - SSE 1024,8 1,9 0,0
12.01.2018 22:00:00 5,0 4,6 16 9 - - SSE 1025,2 2,7 0,0
12.01.2018 21:00:00 5,1 4,5 16 9 - - SSE 1025,2 3,7 0,0
12.01.2018 20:00:00 5,3 4,4 13 7 - - SE 1025,4 7 0,0
12.01.2018 19:00:00 5,3 4,2 13 7 - - SSE 1025,7 8 0,0
12.01.2018 18:00:00 5,3 4,2 13 7 - - SE 1025,8 12 0,0
12.01.2018 17:00:00 4,8 4,4 9 5 - - ESE 1025,9 4,8 0,0
12.01.2018 16:00:00 4,3 3,6 8 4 - - E 1026,0 6 0,0
12.01.2018 15:00:00 5,4 4,4 9 5 - - E 1026,4 13 0,0
12.01.2018 14:00:00 5,6 4,6 11 6 - - E 1026,3 8 0,0
12.01.2018 13:00:00 6,2 5,3 9 5 - - E 1026,7 11 0,0

tt = temperature
td = dewpoint
ff = wind speed
fx = gusts
dd = wind direction
ppp = reduced air pressure
vv = visibility
rr = precipitation

Next stations